Dayton, OH

1:45 AM EDT on April 26, 2018 (GMT -0400)
Cox-Dayton International

Weather History for KDAY - November, 2011

Change the Weather History Date:

Friday, November 11, 2011

  Actual Average Record
Temperature  
Mean Temperature 36 °F 45 °F  
Max Temperature 43 °F 54 °F 75 °F (1902)
Min Temperature 28 °F 36 °F 20 °F (1980)
Degree Days  
Heating Degree Days 29 20  
Month to date heating degree days 190 199  
Since 1 July heating degree days 669 646  
Cooling Degree Days 0 0  
Month to date cooling degree days 0 0  
Year to date cooling degree days 1160 891  
Moisture  
Dew Point 26 °F    
Average Humidity 71    
Maximum Humidity 92    
Minimum Humidity 49    
Precipitation  
Precipitation 0.00 in 0.10 in 1.36 in (2007)
Month to date precipitation 0.51 1.15  
Year to date precipitation 46.08 35.69  
Snow  
Snow 0.00 in 0.00 in 1.10 in (1986)
Month to date snowfall T 0.1  
Since 1 July snowfall T 0.5  
Since 1 September snowfall T 0.5  
Snow Depth 0.00 in    
Sea Level Pressure  
Sea Level Pressure 30.04 in    
Wind  
Wind Speed 12 mph (WSW)    
Max Wind Speed 20 mph    
Max Gust Speed 23 mph    
Visibility 10 miles    
Events      
T = Trace of Precipitation, MM = Missing Value Source: NWS Daily Summary

Daily Weather History Graph

Daily Weather History Graph

Search for Another Location

Airport or City:

Astronomy

Nov. 11, 2011 Rise Set
Actual Time 7:16 AM EST 5:24 PM EST
Civil Twilight 6:48 AM EST 5:53 PM EST
Nautical Twilight 6:15 AM EST 6:25 PM EST
Astronomical Twilight 5:43 AM EST 6:57 PM EST
Moon 5:52 PM EST (11/11) 8:04 AM EST (11/11)
Length of Visible Light 11h 04m
Length of Day
10h 07m
Full, 99% of the Moon is Illuminated
Nov 11
Full
Nov 18
Last Quarter
Nov 25
New
Dec 2
First Quarter
Dec 10
Full

Hourly Weather History & Observations

Time (EST) Temp. Windchill Dew Point Humidity Pressure Visibility Wind Dir Wind Speed Gust Speed Precip Events Conditions
12:56 AM 30.2 °F 20.2 °F 28.4 °F 93% 30.01 in 10.0 mi West 12.7 mph - N/A   Partly Cloudy
1:56 AM 30.9 °F 21.7 °F 28.0 °F 89% 30.03 in 10.0 mi West 11.5 mph - N/A   Clear
2:35 AM 32.0 °F 22.5 °F 28.4 °F 87% 30.02 in 10.0 mi West 12.7 mph - N/A   Mostly Cloudy
2:51 AM 30.2 °F 21.3 °F 28.4 °F 93% 30.01 in 10.0 mi West 10.4 mph - N/A   Scattered Clouds
2:56 AM 30.9 °F 22.2 °F 28.0 °F 89% 30.04 in 10.0 mi West 10.4 mph - N/A   Partly Cloudy
3:56 AM 30.0 °F 21.7 °F 27.0 °F 88% 30.04 in 10.0 mi West 9.2 mph - N/A   Clear
4:56 AM 30.0 °F 21.1 °F 27.0 °F 88% 30.04 in 10.0 mi West 10.4 mph - N/A   Clear
5:56 AM 30.0 °F 19.5 °F 27.0 °F 88% 30.05 in 10.0 mi West 13.8 mph - N/A   Clear
6:56 AM 28.4 °F 18.0 °F 26.6 °F 93% 30.05 in 9.0 mi West 12.7 mph - N/A   Partly Cloudy
7:56 AM 28.9 °F 19.8 °F 27.0 °F 92% 30.10 in 8.0 mi West 10.4 mph - N/A   Clear
8:56 AM 32.0 °F 22.5 °F 28.4 °F 87% 30.09 in 10.0 mi West 12.7 mph - N/A   Partly Cloudy
9:56 AM 36.0 °F 28.5 °F 28.0 °F 73% 30.11 in 10.0 mi West 10.4 mph - N/A   Partly Cloudy
10:56 AM 39.0 °F 30.3 °F 27.0 °F 62% 30.12 in 10.0 mi WSW 16.1 mph - N/A   Scattered Clouds
11:56 AM 39.0 °F 30.6 °F 25.0 °F 57% 30.12 in 10.0 mi WSW 15.0 mph 21.9 mph N/A   Scattered Clouds
12:56 PM 39.9 °F 32.1 °F 25.0 °F 55% 30.09 in 10.0 mi West 13.8 mph 20.7 mph N/A   Overcast
1:56 PM 41.0 °F 33.1 °F 25.0 °F 53% 30.07 in 10.0 mi West 15.0 mph 21.9 mph N/A   Mostly Cloudy
2:56 PM 42.1 °F 36.1 °F 25.0 °F 51% 30.04 in 10.0 mi SW 10.4 mph - N/A   Overcast
3:56 PM 42.1 °F 34.5 °F 25.0 °F 51% 30.04 in 10.0 mi SW 15.0 mph - N/A   Mostly Cloudy
4:56 PM 41.0 °F 35.2 °F 24.8 °F 53% 30.01 in 10.0 mi SSW 9.2 mph - N/A   Mostly Cloudy
5:56 PM 37.9 °F 32.1 °F 25.0 °F 60% 30.01 in 10.0 mi South 8.1 mph - N/A   Mostly Cloudy
6:56 PM 37.9 °F 32.1 °F 25.0 °F 60% 30.01 in 10.0 mi South 8.1 mph - N/A   Partly Cloudy
7:56 PM 39.0 °F 32.3 °F 24.1 °F 55% 30.00 in 10.0 mi South 10.4 mph - N/A   Partly Cloudy
8:56 PM 39.0 °F 33.4 °F 24.1 °F 55% 30.01 in 10.0 mi South 8.1 mph - N/A   Partly Cloudy
9:56 PM 37.9 °F 31.5 °F 25.0 °F 60% 29.99 in 10.0 mi South 9.2 mph - N/A   Clear
10:56 PM 37.9 °F 30.5 °F 24.1 °F 57% 29.94 in 10.0 mi South 11.5 mph - N/A   Clear
11:56 PM 39.9 °F 31.4 °F 24.1 °F 53% 29.91 in 10.0 mi South 16.1 mph - N/A   Clear